C6044 KMOB-KMOB

Flight info

Callsign C6044
Flight time 1h 20m
Altitude 6000
Route KPNS
Aircraft H60/L-DGILORTUVY/SB2

Departure

Time 2026-04-28 16:22
Airport Mobile Regional Airport (KMOB)

Arrival

Time 2026-04-28 17:43
Airport Mobile Regional Airport (KMOB)
Time Latitude Longitude Altitude Speed Heading
2026-04-28 16:18 30.69527 -88.24342 222 ft 0 kts 357°
2026-04-28 16:21 30.69528 -88.24342 223 ft 0 kts 356°
2026-04-28 16:22 30.69536 -88.24347 238 ft 6 kts 205°
2026-04-28 16:22 30.69486 -88.24357 294 ft 25 kts 163°
2026-04-28 16:22 30.69107 -88.24322 649 ft 86 kts 174°
2026-04-28 16:22 30.68315 -88.24360 977 ft 139 kts 214°
2026-04-28 16:23 30.67307 -88.24723 959 ft 164 kts 201°
2026-04-28 16:23 30.66335 -88.25411 1192 ft 158 kts 212°
2026-04-28 16:23 30.65488 -88.26058 1903 ft 133 kts 211°
2026-04-28 16:23 30.64723 -88.26605 2567 ft 129 kts 209°
2026-04-28 16:24 30.63898 -88.27190 2236 ft 147 kts 209°
2026-04-28 16:24 30.62978 -88.27811 1921 ft 157 kts 207°
2026-04-28 16:24 30.62054 -88.28418 1967 ft 148 kts 207°
2026-04-28 16:24 30.61182 -88.28984 2146 ft 140 kts 207°
2026-04-28 16:25 30.60349 -88.29523 2328 ft 135 kts 207°
2026-04-28 16:25 30.59530 -88.30046 2560 ft 132 kts 206°
2026-04-28 16:25 30.58990 -88.30384 2731 ft 139 kts 206°
2026-04-28 16:25 30.57680 -88.31042 2381 ft 162 kts 199°
2026-04-28 16:26 30.56653 -88.31505 2373 ft 159 kts 199°
2026-04-28 16:26 30.55621 -88.31969 2457 ft 158 kts 199°
2026-04-28 16:26 30.54590 -88.32434 2550 ft 159 kts 199°
2026-04-28 16:26 30.53539 -88.32866 2563 ft 162 kts 193°
2026-04-28 16:27 30.52473 -88.33190 2606 ft 159 kts 193°
2026-04-28 16:27 30.51404 -88.33523 2657 ft 160 kts 193°
2026-04-28 16:27 30.49268 -88.34191 2496 ft 159 kts 193°
2026-04-28 16:28 30.48197 -88.34530 2392 ft 157 kts 193°
2026-04-28 16:28 30.47117 -88.34833 2303 ft 164 kts 192°
2026-04-28 16:28 30.45989 -88.35150 2155 ft 169 kts 192°
2026-04-28 16:28 30.44825 -88.35473 1952 ft 174 kts 191°
2026-04-28 16:29 30.42577 -88.35928 1581 ft 159 kts 187°
2026-04-28 16:29 30.40403 -88.36360 1224 ft 158 kts 187°
2026-04-28 16:30 30.39316 -88.36578 1068 ft 158 kts 187°
2026-04-28 16:30 30.38237 -88.36795 920 ft 157 kts 187°
2026-04-28 16:30 30.37156 -88.37008 784 ft 157 kts 187°
2026-04-28 16:30 30.36075 -88.37213 667 ft 157 kts 187°
2026-04-28 16:31 30.35006 -88.37415 565 ft 158 kts 187°
2026-04-28 16:31 30.33918 -88.37610 481 ft 163 kts 187°
2026-04-28 16:31 30.32835 -88.37793 396 ft 152 kts 187°
2026-04-28 16:31 30.31791 -88.37992 411 ft 158 kts 187°
2026-04-28 16:32 30.30798 -88.38184 557 ft 135 kts 187°
2026-04-28 16:32 30.28741 -88.38575 670 ft 136 kts 187°
2026-04-28 16:32 30.27850 -88.38752 829 ft 137 kts 187°
2026-04-28 16:33 30.26812 -88.38948 821 ft 162 kts 187°
2026-04-28 16:33 30.26050 -88.39089 774 ft 157 kts 187°
2026-04-28 16:33 30.24669 -88.39341 710 ft 145 kts 187°
2026-04-28 16:33 30.23825 -88.39487 1266 ft 97 kts 186°
2026-04-28 16:34 30.23295 -88.39586 2208 ft 61 kts 186°
2026-04-28 16:34 30.22957 -88.39567 2936 ft 38 kts 171°
2026-04-28 16:34 30.22801 -88.39415 3356 ft 31 kts 166°
2026-04-28 16:34 30.22750 -88.39045 2917 ft 57 kts 123°
2026-04-28 16:35 30.22697 -88.38609 2406 ft 45 kts 103°
2026-04-28 16:35 30.22772 -88.38474 2700 ft 20 kts 98°
2026-04-28 16:35 30.22917 -88.38812 2738 ft 84 kts 42°
2026-04-28 16:35 30.22930 -88.39422 3150 ft 62 kts 18°
2026-04-28 16:36 30.23078 -88.39779 3219 ft 53 kts
2026-04-28 16:36 30.23626 -88.40016 2270 ft 114 kts 336°
2026-04-28 16:36 30.24443 -88.40540 935 ft 150 kts 328°
2026-04-28 16:36 30.25241 -88.41153 519 ft 118 kts 325°
2026-04-28 16:37 30.25609 -88.41796 991 ft 89 kts 282°
2026-04-28 16:37 30.25720 -88.42510 1335 ft 96 kts 269°
2026-04-28 16:37 30.25557 -88.43324 1431 ft 112 kts 247°
2026-04-28 16:38 30.24974 -88.45224 1294 ft 130 kts 250°
2026-04-28 16:38 30.24816 -88.46255 1630 ft 132 kts 261°
2026-04-28 16:38 30.24882 -88.47331 1850 ft 138 kts 273°
2026-04-28 16:38 30.25145 -88.48474 1802 ft 153 kts 285°
2026-04-28 16:39 30.25524 -88.49664 1760 ft 164 kts 289°
2026-04-28 16:39 30.25972 -88.50908 1621 ft 170 kts 290°
2026-04-28 16:39 30.26383 -88.52108 1438 ft 137 kts 288°
2026-04-28 16:39 30.26628 -88.52905 1279 ft 75 kts 288°
2026-04-28 16:40 30.26735 -88.53271 1112 ft 21 kts 290°
2026-04-28 16:40 30.26753 -88.53332 1011 ft 25 kts 290°
2026-04-28 16:40 30.26892 -88.53808 1016 ft 96 kts 288°
2026-04-28 16:40 30.27099 -88.54698 1015 ft 120 kts 279°
2026-04-28 16:41 30.27080 -88.55661 1016 ft 120 kts 256°
2026-04-28 16:41 30.26664 -88.56485 1016 ft 120 kts 222°
2026-04-28 16:41 30.25939 -88.56931 1016 ft 120 kts 197°
2026-04-28 16:41 30.25140 -88.57180 1014 ft 121 kts 227°
2026-04-28 16:42 30.25204 -88.58099 1079 ft 127 kts 285°
2026-04-28 16:42 30.25516 -88.59144 1526 ft 149 kts 287°
2026-04-28 16:42 30.25904 -88.60301 1629 ft 157 kts 291°
2026-04-28 16:42 30.26389 -88.61433 1779 ft 160 kts 295°
2026-04-28 16:43 30.26910 -88.62617 1469 ft 168 kts 295°
2026-04-28 16:43 30.27422 -88.63852 1132 ft 173 kts 293°
2026-04-28 16:43 30.27902 -88.65111 995 ft 170 kts 290°
2026-04-28 16:43 30.28264 -88.66404 896 ft 168 kts 283°
2026-04-28 16:44 30.28526 -88.67717 832 ft 167 kts 280°
2026-04-28 16:44 30.28740 -88.69028 814 ft 164 kts 277°
2026-04-28 16:44 30.28832 -88.70318 852 ft 158 kts 269°
2026-04-28 16:44 30.28852 -88.71578 927 ft 157 kts 267°
2026-04-28 16:45 30.28811 -88.72845 940 ft 158 kts 263°
2026-04-28 16:45 30.28704 -88.74113 935 ft 159 kts 260°
2026-04-28 16:45 30.28530 -88.75381 922 ft 159 kts 257°
2026-04-28 16:45 30.28293 -88.76632 895 ft 160 kts 254°
2026-04-28 16:46 30.27992 -88.77869 876 ft 160 kts 250°
2026-04-28 16:46 30.27636 -88.79065 864 ft 159 kts 247°
2026-04-28 16:46 30.27291 -88.80283 855 ft 159 kts 251°
2026-04-28 16:46 30.27032 -88.81501 941 ft 152 kts 255°
2026-04-28 16:47 30.26827 -88.82682 1095 ft 148 kts 256°
2026-04-28 16:47 30.26628 -88.83843 1244 ft 146 kts 256°
2026-04-28 16:47 30.26428 -88.84995 1364 ft 146 kts 256°
2026-04-28 16:47 30.26223 -88.86153 1461 ft 148 kts 256°
2026-04-28 16:48 30.26015 -88.87316 1551 ft 148 kts 256°
2026-04-28 16:48 30.25804 -88.88488 1630 ft 149 kts 255°
2026-04-28 16:48 30.25588 -88.89657 1723 ft 149 kts 254°
2026-04-28 16:48 30.25365 -88.90825 1802 ft 148 kts 254°
2026-04-28 16:49 30.25138 -88.91992 1861 ft 148 kts 254°
2026-04-28 16:49 30.24906 -88.93159 1904 ft 151 kts 253°
2026-04-28 16:49 30.24651 -88.94393 1730 ft 165 kts 253°
2026-04-28 16:49 30.24363 -88.95745 1262 ft 180 kts 253°
2026-04-28 16:50 30.24050 -88.97178 546 ft 183 kts 253°
2026-04-28 16:50 30.23765 -88.98391 945 ft 135 kts 251°
2026-04-28 16:50 30.23538 -88.99379 1557 ft 124 kts 250°
2026-04-28 16:50 30.23164 -89.00146 2192 ft 96 kts 218°
2026-04-28 16:51 30.22537 -89.00351 2737 ft 100 kts 187°
2026-04-28 16:51 30.21782 -89.00387 2605 ft 108 kts 167°
2026-04-28 16:51 30.20978 -89.00098 1951 ft 135 kts 162°
2026-04-28 16:51 30.20181 -88.99575 1290 ft 126 kts 140°
2026-04-28 16:52 30.19579 -88.98868 948 ft 120 kts 131°
2026-04-28 16:52 30.19188 -88.98162 1003 ft 89 kts 116°
2026-04-28 16:52 30.19010 -88.97527 1202 ft 76 kts 107°
2026-04-28 16:52 30.18953 -88.96970 1420 ft 68 kts 98°
2026-04-28 16:53 30.18961 -88.96430 1548 ft 67 kts 95°
2026-04-28 16:53 30.19006 -88.95887 1646 ft 72 kts 90°
2026-04-28 16:53 30.19090 -88.95228 1611 ft 96 kts 88°
2026-04-28 16:53 30.19180 -88.94360 1508 ft 125 kts 88°
2026-04-28 16:54 30.19269 -88.93247 1867 ft 145 kts 90°
2026-04-28 16:54 30.19267 -88.92077 2332 ft 152 kts 94°
2026-04-28 16:54 30.19255 -88.90828 2665 ft 154 kts 92°
2026-04-28 16:54 30.19393 -88.90055 3101 ft 147 kts 78°
2026-04-28 16:55 30.20033 -88.88625 3455 ft 156 kts 64°
2026-04-28 16:55 30.20582 -88.87442 2838 ft 172 kts 65°
2026-04-28 16:55 30.21133 -88.86220 1147 ft 166 kts 65°
2026-04-28 16:55 30.21648 -88.85088 649 ft 151 kts 64°
2026-04-28 16:56 30.22143 -88.84093 435 ft 136 kts 61°
2026-04-28 16:56 30.22628 -88.83197 375 ft 126 kts 60°
2026-04-28 16:56 30.23104 -88.82385 486 ft 117 kts 57°
2026-04-28 16:56 30.23509 -88.81603 664 ft 110 kts 68°
2026-04-28 16:57 30.23685 -88.80774 809 ft 107 kts 88°
2026-04-28 16:57 30.23628 -88.79923 942 ft 105 kts 101°
2026-04-28 16:57 30.23508 -88.79086 1074 ft 107 kts 103°
2026-04-28 16:57 30.23342 -88.78172 963 ft 126 kts 105°
2026-04-28 16:58 30.23137 -88.77135 874 ft 136 kts 105°
2026-04-28 16:58 30.22892 -88.76049 832 ft 145 kts 107°
2026-04-28 16:58 30.22602 -88.74899 646 ft 153 kts 109°
2026-04-28 16:58 30.22272 -88.73713 695 ft 154 kts 110°
2026-04-28 16:59 30.21942 -88.72524 892 ft 155 kts 109°
2026-04-28 16:59 30.21638 -88.71320 1051 ft 159 kts 107°
2026-04-28 16:59 30.21390 -88.70052 1078 ft 164 kts 104°
2026-04-28 16:59 30.21167 -88.68737 1030 ft 169 kts 102°
2026-04-28 17:00 30.20969 -88.67383 927 ft 172 kts 101°
2026-04-28 17:00 30.20806 -88.66009 861 ft 172 kts 98°
2026-04-28 17:00 30.20687 -88.64628 899 ft 175 kts 98°
2026-04-28 17:00 30.20628 -88.63200 768 ft 180 kts 94°
2026-04-28 17:01 30.20624 -88.61762 717 ft 177 kts 92°
2026-04-28 17:01 30.20614 -88.60376 866 ft 167 kts 93°
2026-04-28 17:01 30.20580 -88.59056 1055 ft 166 kts 96°
2026-04-28 17:01 30.20443 -88.57732 1183 ft 166 kts 102°
2026-04-28 17:02 30.20198 -88.56417 1249 ft 170 kts 106°
2026-04-28 17:02 30.19989 -88.55518 1227 ft 173 kts 108°
2026-04-28 17:02 30.19502 -88.53743 1095 ft 177 kts 111°
2026-04-28 17:02 30.19115 -88.52401 1053 ft 174 kts 109°
2026-04-28 17:03 30.18607 -88.49787 1535 ft 162 kts 101°
2026-04-28 17:03 30.18498 -88.48504 1848 ft 160 kts 97°
2026-04-28 17:03 30.18449 -88.47226 2155 ft 159 kts 96°
2026-04-28 17:04 30.18490 -88.44628 2069 ft 166 kts 88°
2026-04-28 17:04 30.18678 -88.43323 1862 ft 164 kts 82°
2026-04-28 17:05 30.19411 -88.40868 1044 ft 152 kts 60°
2026-04-28 17:05 30.19808 -88.40465 1512 ft 82 kts 32°
2026-04-28 17:05 30.20336 -88.40229 2134 ft 84 kts 21°
2026-04-28 17:06 30.21252 -88.40188 2087 ft 44 kts 354°
2026-04-28 17:06 30.21552 -88.40242 1276 ft 36 kts 226°
2026-04-28 17:06 30.21274 -88.40867 397 ft 43 kts 224°
2026-04-28 17:07 30.21122 -88.40971 31 ft 9 kts 233°
2026-04-28 17:07 30.21122 -88.40959 8 ft 0 kts 219°
2026-04-28 17:17 30.21088 -88.40992 154 ft 25 kts 218°
2026-04-28 17:17 30.20833 -88.41217 307 ft 50 kts 212°
2026-04-28 17:17 30.20647 -88.41361 193 ft 20 kts 214°
2026-04-28 17:17 30.20530 -88.41452 114 ft 20 kts 215°
2026-04-28 17:18 30.20416 -88.41548 65 ft 20 kts 214°
2026-04-28 17:18 30.20301 -88.41637 64 ft 20 kts 214°
2026-04-28 17:18 30.20334 -88.41659 65 ft 20 kts 54°
2026-04-28 17:18 30.20420 -88.41532 65 ft 20 kts 53°
2026-04-28 17:19 30.20465 -88.41458 66 ft 20 kts 53°
2026-04-28 17:19 30.20473 -88.41446 66 ft 20 kts 53°
2026-04-28 17:20 30.20558 -88.41320 62 ft 19 kts 54°
2026-04-28 17:20 30.20616 -88.41222 75 ft 25 kts 58°
2026-04-28 17:20 30.20714 -88.41034 58 ft 20 kts 58°
2026-04-28 17:20 30.20789 -88.40899 59 ft 20 kts 58°
2026-04-28 17:21 30.20860 -88.40760 58 ft 20 kts 58°
2026-04-28 17:21 30.20936 -88.40624 59 ft 20 kts 58°
2026-04-28 17:21 30.21006 -88.40486 59 ft 20 kts 58°
2026-04-28 17:22 30.21168 -88.40344 282 ft 33 kts 319°
2026-04-28 17:22 30.21519 -88.40607 786 ft 82 kts 323°
2026-04-28 17:22 30.21822 -88.41274 1735 ft 110 kts 291°
2026-04-28 17:23 30.23248 -88.43064 1878 ft 194 kts 316°
2026-04-28 17:23 30.24303 -88.44106 1303 ft 197 kts 319°
2026-04-28 17:23 30.25372 -88.45063 1153 ft 192 kts 323°
2026-04-28 17:23 30.26476 -88.45908 1139 ft 188 kts 327°
2026-04-28 17:24 30.27572 -88.46696 1257 ft 184 kts 327°
2026-04-28 17:24 30.28631 -88.47554 1228 ft 189 kts 323°
2026-04-28 17:24 30.29696 -88.48457 1164 ft 191 kts 321°
2026-04-28 17:24 30.30780 -88.49358 1043 ft 193 kts 325°
2026-04-28 17:25 30.31907 -88.50222 851 ft 195 kts 326°
2026-04-28 17:25 30.34303 -88.51670 594 ft 193 kts 335°
2026-04-28 17:25 30.35524 -88.52358 386 ft 198 kts 333°
2026-04-28 17:26 30.36741 -88.53022 331 ft 176 kts 332°
2026-04-28 17:26 30.37455 -88.53481 739 ft 65 kts 325°
2026-04-28 17:26 30.37748 -88.53727 287 ft 40 kts 94°
2026-04-28 17:26 30.37881 -88.53724 146 ft 9 kts 114°
2026-04-28 17:27 30.37797 -88.53655 199 ft 20 kts 220°
2026-04-28 17:27 30.37633 -88.53573 298 ft 29 kts 141°
2026-04-28 17:27 30.37593 -88.53404 211 ft 16 kts 129°
2026-04-28 17:27 30.37578 -88.53400 120 ft 8 kts 124°
2026-04-28 17:28 30.37516 -88.53415 161 ft 10 kts
2026-04-28 17:28 30.37706 -88.53529 224 ft 34 kts 47°
2026-04-28 17:28 30.37787 -88.53320 161 ft 18 kts 232°
2026-04-28 17:29 30.37750 -88.53363 53 ft 5 kts 91°
2026-04-28 17:29 30.37759 -88.53344 23 ft 0 kts 110°
2026-04-28 17:34 30.37759 -88.53337 74 ft 4 kts 110°
2026-04-28 17:35 30.37904 -88.53259 329 ft 62 kts 37°
2026-04-28 17:35 30.38408 -88.52810 803 ft 129 kts 58°
2026-04-28 17:35 30.38996 -88.51869 1032 ft 164 kts 35°
2026-04-28 17:35 30.40213 -88.51467 841 ft 187 kts 20°
2026-04-28 17:36 30.41175 -88.50568 1163 ft 173 kts 45°
2026-04-28 17:36 30.42160 -88.49907 1836 ft 158 kts 24°
2026-04-28 17:36 30.43102 -88.49387 2410 ft 154 kts 47°
2026-04-28 17:36 30.43628 -88.48101 1924 ft 193 kts 59°
2026-04-28 17:37 30.44655 -88.47076 1618 ft 200 kts 41°
2026-04-28 17:37 30.45705 -88.46013 1347 ft 198 kts 44°
2026-04-28 17:37 30.46696 -88.44965 1460 ft 187 kts 42°
2026-04-28 17:37 30.47703 -88.44033 1679 ft 182 kts 37°
2026-04-28 17:38 30.48780 -88.43178 1728 ft 192 kts 37°
2026-04-28 17:38 30.49863 -88.42259 1726 ft 192 kts 38°
2026-04-28 17:38 30.50954 -88.41307 1503 ft 202 kts 40°
2026-04-28 17:38 30.52050 -88.40274 1179 ft 200 kts 39°
2026-04-28 17:39 30.53133 -88.39300 1177 ft 194 kts 41°
2026-04-28 17:39 30.54153 -88.38302 1280 ft 189 kts 43°
2026-04-28 17:39 30.56092 -88.36297 1508 ft 190 kts 44°
2026-04-28 17:40 30.57085 -88.35251 1443 ft 195 kts 45°
2026-04-28 17:40 30.58159 -88.34277 1309 ft 197 kts 38°
2026-04-28 17:40 30.59318 -88.33416 1161 ft 198 kts 34°
2026-04-28 17:40 30.60468 -88.32602 1255 ft 189 kts 34°
2026-04-28 17:41 30.61504 -88.31702 1354 ft 189 kts 42°
2026-04-28 17:41 30.62516 -88.30719 1387 ft 190 kts 43°
2026-04-28 17:41 30.63519 -88.29721 1426 ft 190 kts 43°
2026-04-28 17:41 30.64511 -88.28708 1460 ft 190 kts 44°
2026-04-28 17:42 30.65551 -88.27727 1474 ft 191 kts 39°
2026-04-28 17:42 30.66287 -88.27162 1491 ft 192 kts 34°
2026-04-28 17:42 30.67781 -88.26149 767 ft 174 kts 33°
2026-04-28 17:42 30.68668 -88.25405 782 ft 145 kts 43°
2026-04-28 17:43 30.69263 -88.24705 734 ft 92 kts 54°
2026-04-28 17:43 30.69461 -88.24362 640 ft 19 kts 67°
2026-04-28 17:43 30.69532 -88.24246 281 ft 13 kts 336°
2026-04-28 17:43 30.69570 -88.24261 236 ft 4 kts 338°
2026-04-28 17:44 30.69582 -88.24273 221 ft 0 kts 327°
2026-04-28 17:48 30.69575 -88.24267 221 ft 0 kts 173°
2026-04-28 17:58 30.69576 -88.24269 228 ft 2 kts 174°
2026-04-28 17:59 30.69515 -88.24281 277 ft 19 kts 183°
2026-04-28 17:59 30.69233 -88.24274 485 ft 68 kts 177°
2026-04-28 17:59 30.68553 -88.24441 595 ft 125 kts 220°
2026-04-28 17:59 30.67716 -88.25004 617 ft 144 kts 211°
2026-04-28 18:00 30.66816 -88.25326 1050 ft 135 kts 178°
2026-04-28 18:00 30.65863 -88.25132 1367 ft 151 kts 166°
2026-04-28 18:00 30.64721 -88.25087 1105 ft 176 kts 186°
2026-04-28 18:00 30.63545 -88.25438 1019 ft 161 kts 189°
2026-04-28 18:01 30.62454 -88.25572 1311 ft 162 kts 186°
2026-04-28 18:01 30.61332 -88.25790 1340 ft 164 kts 191°
2026-04-28 18:01 30.60178 -88.26124 1151 ft 176 kts 197°
2026-04-28 18:01 30.59027 -88.26552 1095 ft 164 kts 198°
2026-04-28 18:02 30.57994 -88.26606 1513 ft 150 kts 172°
2026-04-28 18:02 30.56904 -88.26647 1528 ft 154 kts 187°
2026-04-28 18:02 30.55876 -88.26751 1947 ft 145 kts 184°
2026-04-28 18:02 30.54790 -88.26874 1879 ft 171 kts 188°
2026-04-28 18:03 30.53574 -88.27083 1558 ft 177 kts 186°
2026-04-28 18:03 30.52352 -88.27116 1449 ft 174 kts 179°
2026-04-28 18:03 30.51178 -88.27334 1290 ft 172 kts 203°
2026-04-28 18:03 30.50408 -88.28343 937 ft 162 kts 245°
2026-04-28 18:04 30.49966 -88.29282 1407 ft 95 kts 212°
2026-04-28 18:04 30.49310 -88.29194 1729 ft 116 kts 158°
2026-04-28 18:04 30.48826 -88.28396 1502 ft 130 kts 108°
2026-04-28 18:04 30.49131 -88.27977 1887 ft 75 kts 14°
2026-04-28 18:05 30.49718 -88.28327 1015 ft 95 kts
2026-04-28 18:05 30.49885 -88.28377 799 ft 17 kts 73°
2026-04-28 18:05 30.49963 -88.27966 219 ft 40 kts 71°
2026-04-28 18:05 30.50028 -88.27838 137 ft 12 kts 63°
2026-04-28 18:06 30.50094 -88.27694 149 ft 41 kts 64°
2026-04-28 18:06 30.50330 -88.27229 273 ft 103 kts 63°
2026-04-28 18:06 30.50771 -88.26420 735 ft 111 kts 52°
2026-04-28 18:06 30.51510 -88.26626 1302 ft 146 kts 321°
2026-04-28 18:07 30.51671 -88.27577 1816 ft 117 kts 246°
2026-04-28 18:07 30.51427 -88.28588 1020 ft 138 kts 251°
2026-04-28 18:07 30.51140 -88.29525 524 ft 88 kts 159°
2026-04-28 18:07 30.50586 -88.29788 602 ft 105 kts 154°
2026-04-28 18:08 30.49774 -88.29628 747 ft 120 kts 134°
2026-04-28 18:08 30.49254 -88.29094 1007 ft 91 kts 65°
2026-04-28 18:08 30.49390 -88.28622 911 ft 70 kts 52°
2026-04-28 18:08 30.49773 -88.28240 592 ft 67 kts 68°
2026-04-28 18:09 30.49990 -88.27911 218 ft 30 kts 69°
2026-04-28 18:09 30.50028 -88.27874 137 ft 7 kts 83°
2026-04-28 18:09 30.50092 -88.27722 147 ft 39 kts 58°
2026-04-28 18:09 30.50285 -88.27295 392 ft 81 kts 69°
2026-04-28 18:10 30.49940 -88.27173 644 ft 99 kts 261°
2026-04-28 18:10 30.49585 -88.28087 742 ft 145 kts 234°
2026-04-28 18:10 30.49473 -88.29309 676 ft 172 kts 281°
2026-04-28 18:10 30.49465 -88.30557 1024 ft 146 kts 245°
2026-04-28 18:11 30.48694 -88.31324 1181 ft 159 kts 209°
2026-04-28 18:11 30.47686 -88.31946 1150 ft 169 kts 201°
2026-04-28 18:11 30.46564 -88.32329 1210 ft 167 kts 194°
2026-04-28 18:11 30.45433 -88.32667 1270 ft 172 kts 192°
2026-04-28 18:12 30.44238 -88.32973 1084 ft 177 kts 191°
2026-04-28 18:12 30.43110 -88.33296 1346 ft 155 kts 193°
2026-04-28 18:12 30.42100 -88.33638 1740 ft 158 kts 195°
2026-04-28 18:12 30.41056 -88.34068 1899 ft 155 kts 198°
2026-04-28 18:13 30.40083 -88.34518 2193 ft 147 kts 200°
2026-04-28 18:13 30.39138 -88.35055 1099 ft 156 kts 205°
2026-04-28 18:13 30.38224 -88.35668 242 ft 143 kts 208°
2026-04-28 18:13 30.37574 -88.36167 960 ft 90 kts 210°
2026-04-28 18:14 30.37091 -88.36554 818 ft 77 kts 209°
2026-04-28 18:14 30.36758 -88.36771 639 ft 29 kts 209°
2026-04-28 18:14 30.36631 -88.36856 492 ft 20 kts 211°
2026-04-28 18:14 30.36509 -88.36937 359 ft 20 kts 211°
2026-04-28 18:15 30.36390 -88.37024 235 ft 20 kts 211°
2026-04-28 18:15 30.36268 -88.37106 147 ft 20 kts 211°
2026-04-28 18:15 30.36246 -88.37241 100 ft 20 kts 282°
2026-04-28 18:15 30.36279 -88.37398 102 ft 20 kts 282°
2026-04-28 18:16 30.36305 -88.37556 102 ft 20 kts 282°
2026-04-28 18:16 30.36336 -88.37714 101 ft 20 kts 282°
2026-04-28 18:16 30.36368 -88.37872 101 ft 20 kts 282°
2026-04-28 18:16 30.36395 -88.38032 102 ft 20 kts 282°
2026-04-28 18:17 30.36428 -88.38195 99 ft 21 kts 282°
2026-04-28 18:17 30.36492 -88.38528 141 ft 70 kts 278°
2026-04-28 18:17 30.36727 -88.39164 220 ft 99 kts 300°
2026-04-28 18:17 30.37169 -88.39849 101 ft 111 kts 310°
2026-04-28 18:18 30.37742 -88.40319 263 ft 95 kts 356°
2026-04-28 18:18 30.38073 -88.39807 265 ft 83 kts 95°
2026-04-28 18:18 30.37953 -88.39106 204 ft 95 kts 110°
2026-04-28 18:18 30.37806 -88.38599 49 ft 97 kts 113°
2026-04-28 18:19 30.37338 -88.37764 478 ft 97 kts 146°
2026-04-28 18:19 30.36662 -88.37601 1002 ft 117 kts 198°
2026-04-28 18:19 30.36007 -88.38326 512 ft 135 kts 229°
2026-04-28 18:19 30.35407 -88.39164 325 ft 141 kts 230°
2026-04-28 18:20 30.34787 -88.40158 280 ft 163 kts 236°
2026-04-28 18:20 30.34709 -88.41443 239 ft 156 kts 275°
2026-04-28 18:20 30.34901 -88.42575 61 ft 121 kts 282°
2026-04-28 18:20 30.35139 -88.43457 133 ft 101 kts 287°
2026-04-28 18:21 30.35612 -88.44093 297 ft 110 kts 324°
2026-04-28 18:21 30.36303 -88.44397 725 ft 101 kts 342°
2026-04-28 18:21 30.36953 -88.44445 1422 ft 88 kts
2026-04-28 18:21 30.37533 -88.44377 2060 ft 88 kts 288°
2026-04-28 18:22 30.37929 -88.45094 2397 ft 124 kts 277°
2026-04-28 18:22 30.37942 -88.46144 2849 ft 147 kts 263°
2026-04-28 18:22 30.37887 -88.47525 2084 ft 192 kts 269°
2026-04-28 18:22 30.37934 -88.49077 1159 ft 182 kts 269°
2026-04-28 18:23 30.37986 -88.50503 1050 ft 176 kts 269°
2026-04-28 18:23 30.37863 -88.51892 1026 ft 170 kts 260°
2026-04-28 18:23 30.37722 -88.53204 690 ft 151 kts 258°
2026-04-28 18:23 30.37483 -88.54215 502 ft 88 kts 303°
2026-04-28 18:24 30.37458 -88.54373 657 ft 29 kts 68°
2026-04-28 18:24 30.37531 -88.54105 448 ft 62 kts 76°
2026-04-28 18:24 30.37771 -88.53511 236 ft 54 kts 113°
2026-04-28 18:24 30.37779 -88.53331 95 ft 15 kts 223°
2026-04-28 18:25 30.37755 -88.53338 24 ft 0 kts 282°
2026-04-28 18:25 30.37864 -88.53417 263 ft 56 kts 337°
2026-04-28 18:25 30.38207 -88.53235 571 ft 56 kts 172°
2026-04-28 18:26 30.37755 -88.53336 163 ft 10 kts 258°
2026-04-28 18:26 30.37765 -88.53347 24 ft 1 kts 266°
2026-04-28 18:26 30.37782 -88.53402 160 ft 34 kts 274°
2026-04-28 18:26 30.37695 -88.53733 550 ft 22 kts 58°
2026-04-28 18:27 30.37796 -88.53470 380 ft 55 kts 115°
2026-04-28 18:27 30.37781 -88.53362 235 ft 12 kts 149°
2026-04-28 18:27 30.37762 -88.53362 51 ft 1 kts 156°
2026-04-28 18:27 30.37761 -88.53342 29 ft 3 kts 154°
2026-04-28 18:28 30.37749 -88.53336 103 ft 14 kts 111°
2026-04-28 18:28 30.37845 -88.52974 390 ft 98 kts 35°
2026-04-28 18:28 30.38499 -88.52180 451 ft 161 kts 45°
2026-04-28 18:28 30.39522 -88.51591 613 ft 165 kts 25°
2026-04-28 18:29 30.40507 -88.50883 877 ft 175 kts 40°
2026-04-28 18:29 30.41375 -88.49830 870 ft 184 kts 44°
2026-04-28 18:29 30.42452 -88.48968 745 ft 195 kts 36°
2026-04-28 18:29 30.43430 -88.48032 1017 ft 164 kts 42°
2026-04-28 18:30 30.44261 -88.47246 1715 ft 149 kts 40°
2026-04-28 18:30 30.44525 -88.47005 1910 ft 150 kts 39°
2026-04-28 18:30 30.46061 -88.45560 1908 ft 188 kts 40°
2026-04-28 18:30 30.47148 -88.44636 1607 ft 197 kts 38°
2026-04-28 18:31 30.48247 -88.43700 1426 ft 194 kts 39°
2026-04-28 18:31 30.49319 -88.42729 1205 ft 197 kts 41°
2026-04-28 18:31 30.50366 -88.41701 946 ft 198 kts 43°
2026-04-28 18:31 30.51381 -88.40638 767 ft 193 kts 45°
2026-04-28 18:32 30.52342 -88.39590 820 ft 186 kts 45°
2026-04-28 18:32 30.53261 -88.38562 987 ft 182 kts 47°
2026-04-28 18:32 30.54234 -88.37611 1063 ft 184 kts 39°
2026-04-28 18:32 30.55254 -88.36710 1132 ft 185 kts 39°
2026-04-28 18:33 30.56311 -88.35814 1119 ft 191 kts 37°
2026-04-28 18:33 30.57368 -88.34857 1035 ft 194 kts 40°
2026-04-28 18:33 30.58381 -88.33923 1283 ft 179 kts 40°
2026-04-28 18:33 30.59347 -88.33015 1433 ft 186 kts 42°
2026-04-28 18:34 30.60365 -88.32030 1343 ft 194 kts 40°
2026-04-28 18:34 30.61425 -88.31033 1177 ft 198 kts 41°
2026-04-28 18:34 30.62467 -88.30037 1212 ft 182 kts 41°
2026-04-28 18:34 30.63363 -88.29231 1936 ft 156 kts 39°
2026-04-28 18:35 30.64263 -88.28376 1982 ft 177 kts 40°
2026-04-28 18:35 30.65333 -88.27544 1534 ft 192 kts 33°
2026-04-28 18:35 30.66480 -88.26742 1302 ft 190 kts 31°
2026-04-28 18:35 30.67668 -88.26141 1339 ft 193 kts 23°
2026-04-28 18:36 30.68816 -88.25449 646 ft 168 kts 54°
2026-04-28 18:36 30.69288 -88.24894 588 ft 124 kts 72°
2026-04-28 18:36 30.69456 -88.24188 359 ft 34 kts 322°
2026-04-28 18:36 30.69543 -88.24219 258 ft 8 kts 321°
2026-04-28 18:37 30.69572 -88.24252 234 ft 4 kts 320°
2026-04-28 18:37 30.69582 -88.24261 220 ft 0 kts 319°